Weather History for Port Angeles, WA

Change the Weather History Date:

Saturday, August 17, 2013

  Actual Average Record
Temperature  
Mean Temperature 63 °F -  
Max Temperature 68 °F 68 °F 87 °F (1977)
Min Temperature 60 °F 50 °F 42 °F (1987)
Degree Days  
Heating Degree Days 2    
Growing Degree Days 13 (Base 50)    
Moisture  
Dew Point 56 °F    
Average Humidity 74    
Maximum Humidity 86    
Minimum Humidity 59    
Precipitation  
Precipitation 0.00 in - - ()
Sea Level Pressure  
Sea Level Pressure 30.06 in    
Wind  
Wind Speed 7 mph (WNW)    
Max Wind Speed 14 mph    
Max Gust Speed -    
Visibility 10 miles    
Events      
Averages and records for this station are not official NWS values.
T = Trace of Precipitation, MM = Missing Value Source: NWS Daily Summary

Daily Weather History Graph

Daily Weather History Graph

Search for Another Location

Airport:

Trip Planner

Search our weather history database for the weather conditions in past years. The results will help you decide how hot, cold, wet, or windy it might be!

Date:

Astronomy

Aug. 17, 2013 Rise Set
Actual Time 6:11 AM PDT 8:23 PM PDT
Civil Twilight 5:37 AM PDT 8:57 PM PDT
Nautical Twilight 4:55 AM PDT 9:39 PM PDT
Astronomical Twilight 4:07 AM PDT 10:26 PM PDT
Moon 5:51 PM PDT (8/17) 2:12 AM PDT (8/17)
Length of Visible Light 15h 19m
Length of Day
14h 11m
Waxing Gibbous, 85% of the Moon is Illuminated
Aug 17
Waxing Gibbous
Aug 20
Full
Aug 28
Last Quarter
Sep 5
New
Sep 12
First Quarter

Hourly Weather History & Observations

Time (PDT) Temp. Dew Point Humidity Pressure Visibility Wind Dir Wind Speed Gust Speed Precip Events Conditions
12:53 AM 64.0 °F 55.0 °F 73% 30.00 in 10.0 mi West 5.8 mph - N/A   Overcast
1:53 AM 64.0 °F 55.0 °F 73% 30.01 in 10.0 mi West 8.1 mph - N/A   Overcast
2:53 AM 63.0 °F 55.9 °F 78% 30.01 in 10.0 mi West 6.9 mph - N/A   Overcast
3:53 AM 62.1 °F 57.0 °F 84% 30.01 in 10.0 mi WSW 6.9 mph - N/A   Scattered Clouds
4:53 AM 60.1 °F 55.9 °F 86% 30.00 in 10.0 mi West 3.5 mph - N/A   Partly Cloudy
5:53 AM 60.1 °F 55.9 °F 86% 30.00 in 10.0 mi SW 4.6 mph - N/A   Mostly Cloudy
6:53 AM 61.0 °F 55.9 °F 83% 30.02 in 10.0 mi WSW 5.8 mph - N/A   Clear
7:53 AM 62.1 °F 57.0 °F 84% 30.03 in 10.0 mi Calm Calm - N/A   Clear
8:53 AM 64.0 °F 57.9 °F 80% 30.04 in 10.0 mi North 3.5 mph - N/A   Partly Cloudy
9:53 AM 64.9 °F 57.9 °F 78% 30.05 in 10.0 mi NW 6.9 mph - N/A   Overcast
10:53 AM 66.0 °F 57.9 °F 75% 30.06 in 10.0 mi NW 6.9 mph - N/A   Partly Cloudy
11:40 AM 64.9 °F 57.0 °F 75% 30.08 in 10.0 mi NW 5.8 mph - N/A   Mostly Cloudy
11:53 AM 66.0 °F 57.0 °F 73% 30.08 in 10.0 mi NNW 9.2 mph - N/A   Mostly Cloudy
12:53 PM 64.0 °F 57.0 °F 78% 30.09 in 10.0 mi NW 9.2 mph - N/A   Overcast
1:42 PM 66.0 °F 57.0 °F 73% 30.09 in 10.0 mi WNW 10.4 mph - N/A   Overcast
1:53 PM 66.0 °F 57.0 °F 73% 30.09 in 10.0 mi WNW 11.5 mph - N/A   Overcast
2:29 PM 66.0 °F 57.0 °F 73% 30.09 in 10.0 mi NW 13.8 mph - N/A   Overcast
2:53 PM 66.9 °F 55.9 °F 68% 30.09 in 10.0 mi NW 11.5 mph - N/A   Overcast
3:53 PM 66.9 °F 54.0 °F 63% 30.09 in 10.0 mi NW 9.2 mph - N/A   Overcast
4:53 PM 66.9 °F 54.0 °F 63% 30.07 in 10.0 mi WNW 9.2 mph - N/A   Overcast
5:46 PM 66.9 °F 53.1 °F 61% 30.07 in 10.0 mi NW 11.5 mph - N/A   Scattered Clouds
5:53 PM 66.9 °F 52.0 °F 59% 30.07 in 10.0 mi WNW 12.7 mph - N/A   Partly Cloudy
6:53 PM 64.9 °F 53.1 °F 65% 30.06 in 10.0 mi WNW 10.4 mph - N/A   Scattered Clouds
7:04 PM 64.9 °F 53.1 °F 65% 30.07 in 10.0 mi West 11.5 mph - N/A   Mostly Cloudy
7:53 PM 64.0 °F 53.1 °F 67% 30.07 in 10.0 mi West 10.4 mph - N/A   Overcast
8:53 PM 62.1 °F 54.0 °F 75% 30.07 in 10.0 mi West 8.1 mph - N/A   Overcast
9:53 PM 61.0 °F 55.0 °F 81% 30.08 in 10.0 mi West 9.2 mph - N/A   Overcast
10:53 PM 61.0 °F 55.9 °F 83% 30.08 in 10.0 mi WNW 10.4 mph - N/A   Overcast
11:53 PM 60.1 °F 55.0 °F 83% 30.09 in 10.0 mi WNW 3.5 mph - N/A   Overcast